• In Russia
  • List of Countries
  • For 7 days
  • Water Temperature
  • Satellite Maps
  • Weather Map
  • Weather Widgets
  • user-avatar
    Login

    Hourly Weather Wien

    Today, 21 January, Saturday

    Time Temperature Precipitation Wind Pressure Humidity
    00:00 -10°C° 0 mm 1 mps 756 mmHg 88%
    01:00 -10°C° 0 mm 1 mps 756 mmHg 89%
    02:00 -10°C° 0 mm 1 mps 756 mmHg 89%
    03:00 -10°C° 0 mm 1 mps 755 mmHg 89%
    04:00 -10°C° 0 mm 1 mps 755 mmHg 89%
    05:00 -10°C° 0 mm 1 mps 755 mmHg 89%
    06:00 -10°C° 0 mm 1 mps 755 mmHg 89%
    07:00 -10°C° 0 mm 1 mps 755 mmHg 89%
    08:00 -9°C° 0 mm 1 mps 755 mmHg 86%
    09:00 -7°C° 0 mm 1 mps 755 mmHg 82%
    10:00 -4°C° 0 mm 1 mps 756 mmHg 79%
    11:00 -3°C° 0 mm 1 mps 755 mmHg 76%
    12:00 -2°C° 0 mm 1 mps 755 mmHg 73%
    13:00 -1°C° 0 mm 1 mps 755 mmHg 70%
    14:00 -2°C° 0 mm 1 mps 755 mmHg 73%
    15:00 -3°C° 0 mm 1 mps 755 mmHg 76%
    16:00 -4°C° 0 mm 1 mps 754 mmHg 79%
    17:00 -6°C° 0 mm 1 mps 754 mmHg 80%
    18:00 -7°C° 0 mm 1 mps 755 mmHg 82%
    19:00 -8°C° 0 mm 2 mps 755 mmHg 83%
    20:00 -8°C° 0 mm 2 mps 755 mmHg 84%
    21:00 -8°C° 0 mm 2 mps 755 mmHg 84%
    22:00 -8°C° 0 mm 2 mps 755 mmHg 84%
    23:00 -8°C° 0 mm 2 mps 755 mmHg 84%

    Tomorrow, 22 January, Sunday

    Time Temperature Precipitation Wind Pressure Humidity
    00:00 -8°C° 0 mm 2 mps 755 mmHg 84%
    01:00 -8°C° 0 mm 2 mps 755 mmHg 84%
    02:00 -8°C° 0 mm 2 mps 755 mmHg 84%
    03:00 -9°C° 0 mm 3 mps 755 mmHg 84%
    04:00 -9°C° 0 mm 3 mps 755 mmHg 83%
    05:00 -9°C° 0 mm 3 mps 754 mmHg 83%
    06:00 -9°C° 0 mm 3 mps 754 mmHg 83%
    07:00 -9°C° 0 mm 3 mps 754 mmHg 83%
    08:00 -8°C° 0 mm 3 mps 754 mmHg 81%
    09:00 -8°C° 0 mm 4 mps 754 mmHg 78%
    10:00 -7°C° 0 mm 4 mps 755 mmHg 76%
    11:00 -4°C° 0 mm 4 mps 754 mmHg 73%
    12:00 -4°C° 0 mm 5 mps 754 mmHg 71%
    13:00 -2°C° 0 mm 5 mps 753 mmHg 69%
    14:00 -4°C° 0 mm 5 mps 753 mmHg 71%
    15:00 -4°C° 0 mm 5 mps 753 mmHg 74%
    16:00 -5°C° 0 mm 5 mps 753 mmHg 76%
    17:00 -6°C° 0 mm 5 mps 753 mmHg 79%
    18:00 -6°C° 0 mm 5 mps 753 mmHg 82%
    19:00 -7°C° 0 mm 4 mps 753 mmHg 84%
    20:00 -7°C° 0 mm 4 mps 752 mmHg 85%
    21:00 -8°C° 0 mm 4 mps 752 mmHg 86%
    22:00 -8°C° 0 mm 4 mps 752 mmHg 87%
    23:00 -8°C° 0 mm 4 mps 752 mmHg 88%

    Day after tomorrow, 23 January, Monday

    Time Temperature Precipitation Wind Pressure Humidity
    00:00 -8°C° 0 mm 4 mps 752 mmHg 89%
    01:00 -8°C° 0 mm 4 mps 752 mmHg 91%
    02:00 -9°C° 0 mm 4 mps 751 mmHg 92%
    03:00 -9°C° 0 mm 4 mps 751 mmHg 93%
    04:00 -10°C° 0 mm 4 mps 751 mmHg 94%
    05:00 -10°C° 0 mm 3 mps 751 mmHg 94%
    06:00 -10°C° 0 mm 3 mps 751 mmHg 95%
    07:00 -12°C° 0 mm 3 mps 750 mmHg 95%
    08:00 -9°C° 0 mm 3 mps 751 mmHg 93%
    09:00 -8°C° 0 mm 3 mps 751 mmHg 90%
    10:00 -7°C° 0 mm 3 mps 751 mmHg 88%
    11:00 -5°C° 0 mm 2 mps 750 mmHg 85%
    12:00 -4°C° 0 mm 2 mps 750 mmHg 83%
    13:00 -4°C° 0 mm 2 mps 749 mmHg 81%
    14:00 -4°C° 0 mm 2 mps 749 mmHg 83%
    15:00 -3°C° 0 mm 1 mps 749 mmHg 85%
    16:00 -4°C° 0 mm 1 mps 749 mmHg 87%
    17:00 -6°C° 0 mm 1 mps 749 mmHg 90%
    18:00 -8°C° 0 mm 1 mps 749 mmHg 92%
    19:00 -9°C° 0 mm 0 mps 749 mmHg 95%
    20:00 -9°C° 0 mm 0 mps 749 mmHg 95%
    21:00 -9°C° 0 mm 0 mps 749 mmHg 96%
    22:00 -9°C° 0 mm 0 mps 749 mmHg 96%
    23:00 -9°C° 0 mm 1 mps 749 mmHg 96%

    24 January, Tuesday

    Time Temperature Precipitation Wind Pressure Humidity
    00:00 -9°C° 0 mm 1 mps 749 mmHg 96%
    01:00 -9°C° 0 mm 1 mps 749 mmHg 96%
    02:00 -9°C° 0 mm 1 mps 749 mmHg 96%
    03:00 -10°C° 0 mm 2 mps 749 mmHg 96%
    04:00 -12°C° 0 mm 2 mps 749 mmHg 96%
    05:00 -10°C° 0 mm 2 mps 749 mmHg 95%
    06:00 -10°C° 0 mm 2 mps 749 mmHg 94%
    07:00 -10°C° 0 mm 2 mps 749 mmHg 94%
    08:00 -10°C° 0 mm 3 mps 750 mmHg 90%
    09:00 -8°C° 0 mm 3 mps 750 mmHg 87%
    10:00 -8°C° 0 mm 4 mps 750 mmHg 83%
    11:00 -7°C° 0 mm 4 mps 750 mmHg 82%
    12:00 -5°C° 0 mm 4 mps 750 mmHg 80%
    13:00 -4°C° 0 mm 4 mps 750 mmHg 78%
    14:00 -5°C° 0 mm 4 mps 750 mmHg 81%
    15:00 -5°C° 0 mm 4 mps 750 mmHg 84%
    16:00 -6°C° 0 mm 3 mps 750 mmHg 88%
    17:00 -7°C° 0 mm 4 mps 751 mmHg 89%
    18:00 -8°C° 0 mm 4 mps 751 mmHg 91%
    19:00 -9°C° 0 mm 4 mps 751 mmHg 93%
    20:00 -9°C° 0 mm 4 mps 752 mmHg 93%
    21:00 -9°C° 0 mm 4 mps 752 mmHg 93%
    22:00 -9°C° 0 mm 4 mps 752 mmHg 93%
    23:00 -8°C° 0 mm 3 mps 752 mmHg 93%

    25 January, Wednesday

    Time Temperature Precipitation Wind Pressure Humidity
    00:00 -8°C° 0 mm 3 mps 753 mmHg 93%
    01:00 -8°C° 0 mm 3 mps 753 mmHg 93%
    02:00 -8°C° 0 mm 3 mps 753 mmHg 93%
    03:00 -8°C° 0 mm 3 mps 753 mmHg 94%
    04:00 -8°C° 0 mm 3 mps 753 mmHg 94%
    05:00 -8°C° 0 mm 3 mps 753 mmHg 94%
    06:00 -7°C° 0 mm 2 mps 753 mmHg 94%
    07:00 -7°C° 0 mm 2 mps 753 mmHg 94%
    08:00 -6°C° 0 mm 2 mps 754 mmHg 92%
    09:00 -5°C° 0 mm 2 mps 754 mmHg 89%
    10:00 -4°C° 0 mm 3 mps 754 mmHg 87%
    11:00 -2°C° 0 mm 3 mps 754 mmHg 85%
    12:00 -1°C° 0 mm 3 mps 754 mmHg 83%
    13:00 -1°C° 0 mm 3 mps 753 mmHg 80%
    14:00 -2°C° 0 mm 2 mps 753 mmHg 84%
    15:00 -2°C° 0 mm 2 mps 753 mmHg 87%
    16:00 -3°C° 0 mm 2 mps 753 mmHg 90%
    17:00 -4°C° 0 mm 2 mps 753 mmHg 92%
    18:00 -5°C° 0 mm 2 mps 754 mmHg 94%
    19:00 -6°C° 0 mm 2 mps 754 mmHg 95%
    20:00 -7°C° 0 mm 2 mps 754 mmHg 95%
    21:00 -7°C° 0 mm 2 mps 754 mmHg 96%
    22:00 -6°C° 0 mm 1 mps 754 mmHg 96%
    23:00 -6°C° 0 mm 1 mps 754 mmHg 96%

    26 January, Thursday

    Time Temperature Precipitation Wind Pressure Humidity
    00:00 -7°C° 0 mm 1 mps 754 mmHg 96%
    01:00 -7°C° 0 mm 1 mps 754 mmHg 96%
    02:00 -7°C° 0 mm 1 mps 754 mmHg 96%
    03:00 -7°C° 0 mm 1 mps 753 mmHg 96%
    04:00 -8°C° 0 mm 1 mps 753 mmHg 97%
    05:00 -8°C° 0 mm 1 mps 753 mmHg 97%
    06:00 -8°C° 0 mm 1 mps 753 mmHg 97%
    07:00 -8°C° 0 mm 1 mps 753 mmHg 97%
    08:00 -6°C° 0 mm 1 mps 753 mmHg 94%
    09:00 -3°C° 0 mm 1 mps 754 mmHg 91%
    10:00 -3°C° 0 mm 0 mps 754 mmHg 88%
    11:00 -2°C° 0 mm 0 mps 754 mmHg 86%
    12:00 -1°C° 0 mm 0 mps 753 mmHg 83%
    13:00 0°C° 0 mm 0 mps 753 mmHg 80%
    14:00 0°C° 0 mm 1 mps 753 mmHg 83%
    15:00 -1°C° 0 mm 1 mps 753 mmHg 86%
    16:00 -2°C° 0 mm 1 mps 752 mmHg 89%
    17:00 -4°C° 0 mm 1 mps 752 mmHg 91%
    18:00 -6°C° 0 mm 1 mps 752 mmHg 93%
    19:00 -7°C° 0 mm 1 mps 753 mmHg 95%
    20:00 -7°C° 0 mm 1 mps 753 mmHg 95%
    21:00 -7°C° 0 mm 1 mps 753 mmHg 95%
    22:00 -7°C° 0 mm 1 mps 753 mmHg 96%
    23:00 -7°C° 0 mm 1 mps 753 mmHg 96%
    Show more